Location: Unspecified
(40.7945°N, 0.0000°E)
Time: 08:31:10
(UTC+00:00)

deb Explorer IX - Pass Details

Date: 22 January 2021
Orbit: 537 x 1103 km, 38.8° (Epoch: 23 February)

Event Time Altitude Azimuth Distance (km) Brightness Sun altitude
Rises 20:38:53 0° 267° (W) 3,415 ? -40.2°
Reaches altitude 10° 20:41:36 10° 266° (W) 2,382 ? -40.7°
Enters shadow 20:42:59 17° 264° (W) 1,872 ? -40.9°
